Web Car-Videos.com

 

Car-videos.com

Videos
Performance Statistics
Unit Converter
Horsepower & Torque
Speed/RPM Calculator
Tires
FAQ
Contact Us
Updates and News Feed
Advertise with Us!  new!
Link to Us


Add to My AOL

Subscribe in NewsGator Online








Performance Home  |  List of all Cars  |  Custom Statistics  |  Tracks

Nurburgring GmbH
Nurburgring, Germany
14.18 Miles

The first lap time is from a dead stop and the 2nd is taken when the car passes the starting line at the end of the 1st lap.

Car First Lap Second Lap
1.1994 McLaren F1 (6M)8:42.58:37.9
2.1996 Ferrari F50 (6M)8:44.78:39.4
3.1991 Ferrari F40 (5M)8:45.28:39.4
4.1998 Dodge Viper GTS-R (6M)8:56.38:51.0
5.2002 Chevrolet Corvette Z06 (6M)8:59.58:53.6
6.1999 Chevrolet Corvette LS1 Hardtop (6M)9:11.29:04.4
7.1997 Ferrari F355 Spider (6M)9:12.09:05.9
8.2000 BMW Z8 (6M)9:21.59:15.4
9.1994 Toyota Supra Turbo (6M)9:26.29:19.4
10.2001 Holden GTS R (Aus) (6M)9:31.39:24.8
11.2007 BMW Alpina B7 (6A)9:34.09:28.7
12.2002 Porsche 911 Targa (6M)9:34.99:28.3
13.2001 Jaguar XKR (5A)9:36.29:28.1
14.2002 Maserati Spyder Cambiocorsa (6MAT)9:38.09:32.3
15.2001 Ford Mustang SVT Cobra (5M)9:39.99:34.1
16.1989 Pontiac Trans Am Turbo (4A)9:40.59:35.1
17.2002 Audi S8 Quattro (5A)9:41.89:35.4
18.2002 Mitsubishi Lancer EVO VII (Jap) (5M)9:42.59:37.7
19.1999 Plymouth Prowler (4A)9:46.79:41.0
20.1993 Nissan 300ZX Turbo (5M)9:46.99:41.3
21.2007 Lexus IS 350 (6M)9:47.49:41.1
22.2004 Subaru Impreza WRX STi (USA) (6M)9:48.09:42.6
23.1998 Ford Mustang GT (5M)9:49.79:42.0
24.1985 Chevrolet Corvette (4M)9:51.99:45.7
25.2003 Nissan 350Z Track (6M)9:52.59:46.8
26.2003 Acura 3.2CL Type-S (6M)9:52.79:46.2
27.2007 Infiniti G35 Sport Sedan (6M)9:53.39:46.9
28.2002 Subaru Impreza WRX Sedan AccessECU2 17" (5M)9:53.39:46.1
29.2002 Acura RSX Type-R (Jap) (6M)9:55.09:49.3
30.2001 BMW 540 i (5A)9:57.49:50.6
31.2000 Honda S2000 (6M)9:58.09:51.8
32.1997 Ford Probe GT (5M)9:59.09:51.1
33.2005 Acura RSX Type-S (6M)9:59.99:53.0
34.2003 Dodge Neon SRT-4 (5M)10:01.39:54.7
35.1997 Honda Prelude SH (5M)10:01.59:53.2
36.1995 Volkswagen GTI VR6 (5M)10:02.59:55.0
37.1989 Toyota Supra Turbo (5M)10:03.19:55.4
38.1994 Subaru SVX LS (4A)10:04.39:56.9
39.2001 Acura Integra Type R (5M)10:07.19:59.2
40.2001 Toyota MR2 Spyder (5M)10:08.410:00.6
41.2002 Nissan Sentra SE-R Spec V (6M)10:08.49:59.9
42.2000 Porsche Boxster (5M)10:08.910:01.5
43.1991 Chevrolet Lumina Z34 (5M)10:09.010:01.5
44.2002 Subaru Impreza WRX Sedan (5M)10:10.910:04.9
45.2004 Infiniti FX45 (5A)10:13.310:06.6
46.2003 Lexus LS430 (5A)10:14.410:07.3
47.1968 Chevrolet Corvette L88 (3A)10:14.610:08.6
48.2002 Acura RSX Type-S (6M)10:15.610:08.3
49.2002 Volkswagen Jetta GLS 1.8T (5M)10:16.010:11.9
50.1989 Chevrolet Camaro IROC-Z 350 (4A)10:16.210:09.5
51.2002 Nissan Sentra SE-R (5M)10:17.110:08.9
52.1999 Mercury Cougar V6 (5M)10:19.610:11.8
53.2001 Acura 3.2CL (5A)10:20.710:12.3
54.1995 Oldsmobile Aurora (4A)10:23.610:16.2
55.1997 Audi A4 1.8T Quattro (5M)10:24.410:17.4
56.1999 Saab 9-5 SE V6 (4A)10:25.910:19.0
57.1984 Toyota Supra (5M)10:27.210:18.1
58.1997 Saturn SC2 (5M)10:29.510:21.2
59.2000 Honda Civic SI (5M)10:31.210:24.5
60.1995 BMW 318 ti (5M)10:31.310:23.5
61.1969 Dodge Super Bee 383 (4M)10:31.510:26.8
62.1998 Honda Accord EX V6 Coupe (4A)10:33.810:26.6
63.1991 Ford Escort GT (5M)10:34.210:26.4
64.1997 Cadillac Catera (4A)10:34.510:26.4
65.1993 Honda Civic SI Hatchback (5M)10:35.110:28.3
66.2003 Jaguar S-Type 3.0 (6A)10:35.110:26.8
67.2004 Subaru Forester 2.5XT Turbo (5M)10:35.310:29.2
68.1990 Ford Probe GT (5M)10:35.410:28.4
69.2002 Audi A4 3.0 CVT (CVT)10:36.110:29.7
70.2003 Lexus GS 300 (5A)10:37.710:30.5
71.1986 Toyota MR2 (5M)10:37.810:30.1
72.1999 Infiniti G20 (4A)10:42.610:33.9
73.1982 Triumph TR-8 (5M)10:43.210:35.0
74.1994 GMC Sonoma SLS (4A)10:44.210:37.0
75.2000 Chevrolet Impala Police Package (4A)10:47.110:39.4
76.2003 Honda Accord EX V-6 Sedan (5A)10:48.610:41.2
77.1995 Chevrolet Camaro V6 (3.4) (5M)10:53.910:46.3
78.1987 Pontiac Firebird 2.8 (4A)10:54.110:46.4
79.1989 Mazda 323 GTX (5M)10:54.510:46.9
80.1986 Ford Mustang LX V6 (3A)10:59.110:49.6
81.1996 Suzuki Esteem GLX (5M)11:01.410:53.5
82.1992 Chevrolet Lumina Euro (4A)11:05.510:57.6
83.1994 Ford Aspire 4-door (5M)11:45.011:37.5